| time (UTC) | temp C | wind direction | speed KPH | gust KPH | rain 1hr cm | rain 24hr cm | rain mn cm | humidity % | barometer mb |
| 20260504221856 | 24 | 191 | 11.3 | 25.7 | 0.00 | 0.00 | 0.00 | ||
| 20260504221351 | 24 | 203 | 9.7 | 29.0 | 0.00 | 0.00 | 0.00 | ||
| 20260504220844 | 25 | 203 | 12.9 | 25.7 | 0.00 | 0.00 | 0.00 | ||
| 20260504215835 | 26 | 183 | 8.0 | 19.3 | 0.00 | 0.00 | 0.00 | ||
| 20260504215330 | 26 | 215 | 6.4 | 19.3 | 0.00 | 0.00 | 0.00 | ||
| 20260504214825 | 25 | 129 | 11.3 | 20.9 | 0.00 | 0.00 | 0.00 | ||
| 20260504214321 | 26 | 128 | 9.7 | 22.5 | 0.00 | 0.00 | 0.00 | ||
| 20260504213813 | 23 | 172 | 12.9 | 30.6 | 0.00 | 0.00 | 0.00 | ||
| 20260504213309 | 23 | 138 | 14.5 | 24.1 | 0.00 | 0.00 | 0.00 | ||
| 20260504212804 | 24 | 146 | 11.3 | 30.6 | 0.00 | 0.00 | 0.00 | ||
| 20260504212259 | 24 | 163 | 9.7 | 20.9 | 0.00 | 0.00 | 0.00 | ||
| 20260504211755 | 23 | 203 | 12.9 | 17.7 | 0.00 | 0.00 | 0.00 | ||
| 20260504211250 | 23 | 177 | 9.7 | 30.6 | 0.00 | 0.00 | 0.00 | ||
| 20260504210743 | 23 | 163 | 12.9 | 17.7 | 0.00 | 0.00 | 0.00 | ||
| 20260504210238 | 24 | 208 | 12.9 | 25.7 | 0.00 | 0.00 | 0.00 | ||
| 20260504205733 | 25 | 181 | 14.5 | 27.4 | 0.00 | 0.00 | 0.00 | ||
| 20260504205229 | 25 | 197 | 12.9 | 32.2 | 0.00 | 0.00 | 0.00 | ||
| 20260504204724 | 25 | 198 | 8.0 | 24.1 | 0.00 | 0.00 | 0.00 | ||
| 20260504204219 | 25 | 180 | 20.9 | 27.4 | 0.00 | 0.00 | 0.00 | ||
| 20260504203712 | 25 | 207 | 20.9 | 37.0 | 0.00 | 0.00 | 0.00 | ||
| 20260504203207 | 25 | 193 | 11.3 | 25.7 | 0.00 | 0.00 | 0.00 | ||
| 20260504202703 | 26 | 162 | 17.7 | 29.0 | 0.00 | 0.00 | 0.00 | ||
| 20260504202158 | 26 | 129 | 14.5 | 25.7 | 0.00 | 0.00 | 0.00 | ||
| 20260504201653 | 26 | 219 | 19.3 | 24.1 | 0.00 | 0.00 | 0.00 | ||
| 20260504201149 | 24 | 177 | 24.1 | 27.4 | 0.00 | 0.00 | 0.00 | ||
| 20260504200641 | 24 | 219 | 12.9 | 20.9 | 0.00 | 0.00 | 0.00 | ||
| 20260504200136 | 25 | 150 | 12.9 | 24.1 | 0.00 | 0.00 | 0.00 | ||
| 20260504195631 | 26 | 136 | 20.9 | 20.9 | 0.00 | 0.00 | 0.00 | ||
| 20260504195127 | 25 | 183 | 8.0 | 25.7 | 0.00 | 0.00 | 0.00 | ||
| 20260504194622 | 26 | 132 | 17.7 | 20.9 | 0.00 | 0.00 | 0.00 | ||
| 20260504194117 | 25 | 219 | 12.9 | 19.3 | 0.00 | 0.00 | 0.00 | ||
| 20260504193609 | 25 | 195 | 8.0 | 25.7 | 0.00 | 0.00 | 0.00 | ||
| 20260504193104 | 26 | 200 | 11.3 | 17.7 | 0.00 | 0.00 | 0.00 | ||
| 20260504192600 | 25 | 152 | 9.7 | 20.9 | 0.00 | 0.00 | 0.00 | ||
| 20260504192055 | 25 | 125 | 8.0 | 22.5 | 0.00 | 0.00 | 0.00 | ||
| 20260504191551 | 26 | 226 | 12.9 | 24.1 | 0.00 | 0.00 | 0.00 | ||
| 20260504191046 | 25 | 181 | 11.3 | 22.5 | 0.00 | 0.00 | 0.00 | ||
| 20260504190538 | 25 | 257 | 14.5 | 22.5 | 0.00 | 0.00 | 0.00 | ||
| 20260504190034 | 24 | 183 | 9.7 | 20.9 | 0.00 | 0.00 | 0.00 | ||
| 20260504185529 | 24 | 195 | 14.5 | 22.5 | 0.00 | 0.00 | 0.00 | ||
| 20260504185025 | 25 | 172 | 6.4 | 17.7 | 0.00 | 0.00 | 0.00 | ||
| 20260504184520 | 25 | 221 | 14.5 | 24.1 | 0.00 | 0.00 | 0.00 | ||
| 20260504184016 | 25 | 214 | 12.9 | 24.1 | 0.00 | 0.00 | 0.00 | ||
| 20260504183508 | 23 | 186 | 19.3 | 24.1 | 0.00 | 0.00 | 0.00 | ||
| 20260504183003 | 23 | 200 | 17.7 | 22.5 | 0.00 | 0.00 | 0.00 | ||
| 20260504182459 | 25 | 194 | 11.3 | 20.9 | 0.00 | 0.00 | 0.00 | ||
| 20260504181954 | 22 | 172 | 14.5 | 25.7 | 0.00 | 0.00 | 0.00 | ||
| 20260504181449 | 24 | 231 | 22.5 | 19.3 | 0.00 | 0.00 | 0.00 | ||
| 20260504180437 | 22 | 155 | 9.7 | 22.5 | 0.00 | 0.00 | 0.00 | ||
| 20260504175932 | 22 | 190 | 8.0 | 17.7 | 0.00 | 0.00 | 0.00 | ||
| 20260504175428 | 23 | 214 | 11.3 | 22.5 | 0.00 | 0.00 | 0.00 | ||
| 20260504174923 | 23 | 170 | 8.0 | 19.3 | 0.00 | 0.00 | 0.00 | ||
| 20260504174418 | 23 | 159 | 6.4 | 19.3 | 0.00 | 0.00 | 0.00 | ||
| 20260504173914 | 22 | 307 | 3.2 | 25.7 | 0.00 | 0.00 | 0.00 | ||
| 20260504173406 | 23 | 166 | 19.3 | 19.3 | 0.00 | 0.00 | 0.00 | ||
| 20260504172901 | 23 | 197 | 11.3 | 24.1 | 0.00 | 0.00 | 0.00 | ||
| 20260504171852 | 22 | 211 | 9.7 | 19.3 | 0.00 | 0.00 | 0.00 | ||
| 20260504171348 | 23 | 139 | 14.5 | 19.3 | 0.00 | 0.00 | 0.00 | ||
| 20260504170843 | 22 | 142 | 12.9 | 20.9 | 0.00 | 0.00 | 0.00 | ||
| 20260504170336 | 22 | 218 | 11.3 | 20.9 | 0.00 | 0.00 | 0.00 | ||
| 20260504160235 | 22 | 186 | 11.3 | 16.1 | 0.00 | 0.00 | 0.00 | ||
| 20260504151145 | 20 | 235 | 16.1 | 19.3 | 0.00 | 0.00 | 0.00 | ||
| 20260504150640 | 20 | 249 | 11.3 | 24.1 | 0.00 | 0.00 | 0.00 | ||
| 20260504150133 | 20 | 172 | 11.3 | 17.7 | 0.00 | 0.00 | 0.00 | ||
| 20260504141042 | 18 | 190 | 8.0 | 12.9 | 0.00 | 0.00 | 0.00 | ||
| 20260504140538 | 17 | 194 | 4.8 | 16.1 | 0.00 | 0.00 | 0.00 | ||
| 20260504130433 | 13 | 174 | 8.0 | 12.9 | 0.00 | 0.00 | 0.00 | ||
| 20260504110223 | 8 | 166 | 1.6 | 6.4 | 0.00 | 0.00 | 0.00 | ||
| 20260504100117 | 7 | 218 | 3.2 | 4.8 | 0.00 | 0.00 | 0.00 | ||
| 20260504081925 | 5 | 70 | 0.0 | 0.0 | 0.00 | 0.00 | 0.00 | ||
| 20260504081419 | 6 | 70 | 0.0 | 0.0 | 0.00 | 0.00 | 0.00 | ||
| 20260504080914 | 5 | 70 | 0.0 | 0.0 | 0.00 | 0.00 | 0.00 | ||
| 20260504080409 | 4 | 70 | 0.0 | 0.0 | 0.00 | 0.00 | 0.00 | ||
| 20260504070301 | 3 | 70 | 0.0 | 0.0 | 0.00 | 0.00 | 0.00 | ||
| 20260504060152 | 2 | 70 | 0.0 | 0.0 | 0.00 | 0.00 | 0.00 | ||
| 20260504050549 | 2 | 70 | 0.0 | 0.0 | 0.00 | 0.00 | 0.00 | ||
| 20260504045538 | 2 | 70 | 0.0 | 0.0 | 0.00 | 0.00 | 0.00 | ||
| 20260504045030 | 2 | 70 | 0.0 | 0.0 | 0.00 | 0.00 | 0.00 | ||
| 20260504044525 | 2 | 70 | 0.0 | 0.0 | 0.00 | 0.00 | 0.00 | ||
| 20260504044020 | 2 | 70 | 0.0 | 0.0 | 0.00 | 0.00 | 0.00 | ||
| 20260504043515 | 2 | 70 | 0.0 | 0.0 | 0.00 | 0.00 | 0.00 | ||
| 20260504043009 | 2 | 70 | 0.0 | 0.0 | 0.00 | 0.00 | 0.00 | ||
| 20260504042504 | 2 | 70 | 0.0 | 0.0 | 0.00 | 0.00 | 0.00 | ||
| 20260504041956 | 2 | 70 | 0.0 | 3.2 | 0.00 | 0.00 | 0.00 | ||
| 20260504041451 | 2 | 70 | 0.0 | 0.0 | 0.00 | 0.00 | 0.00 | ||
| 20260504040441 | 2 | 104 | 0.0 | 0.0 | 0.00 | 0.00 | 0.00 | ||
| 20260504035935 | 3 | 104 | 0.0 | 0.0 | 0.00 | 0.00 | 0.00 | ||
| 20260504035430 | 3 | 104 | 0.0 | 0.0 | 0.00 | 0.00 | 0.00 | ||
| 20260504034416 | 2 | 104 | 0.0 | 0.0 | 0.00 | 0.00 | 0.00 | ||
| 20260504033911 | 3 | 104 | 0.0 | 0.0 | 0.00 | 0.00 | 0.00 | ||
| 20260504033406 | 4 | 104 | 0.0 | 0.0 | 0.00 | 0.00 | 0.00 | ||
| 20260504032901 | 4 | 104 | 0.0 | 0.0 | 0.00 | 0.00 | 0.00 | ||
| 20260504032356 | 4 | 104 | 0.0 | 0.0 | 0.00 | 0.00 | 0.00 | ||
| 20260504031848 | 4 | 104 | 0.0 | 0.0 | 0.00 | 0.00 | 0.00 | ||
| 20260504031342 | 5 | 104 | 0.0 | 3.2 | 0.00 | 0.00 | 0.00 | ||
| 20260504030837 | 3 | 104 | 1.6 | 3.2 | 0.00 | 0.00 | 0.00 | ||
| 20260504030332 | 5 | 219 | 0.0 | 0.0 | 0.00 | 0.00 | 0.00 | ||
| 20260504025827 | 5 | 219 | 0.0 | 0.0 | 0.00 | 0.00 | 0.00 | ||
| 20260504025322 | 4 | 219 | 0.0 | 0.0 | 0.00 | 0.00 | 0.00 | ||
| 20260504024814 | 5 | 219 | 0.0 | 0.0 | 0.00 | 0.00 | 0.00 | ||
| 20260504024309 | 4 | 219 | 0.0 | 0.0 | 0.00 | 0.00 | 0.00 | ||
| 20260504023804 | 5 | 219 | 0.0 | 0.0 | 0.00 | 0.00 | 0.00 | ||
| 20260504022754 | 4 | 219 | 0.0 | 0.0 | 0.00 | 0.00 | 0.00 | ||
| 20260504022249 | 4 | 219 | 0.0 | 0.0 | 0.00 | 0.00 | 0.00 | ||
| 20260504021741 | 5 | 219 | 0.0 | 0.0 | 0.00 | 0.00 | 0.00 | ||
| 20260504021237 | 5 | 219 | 0.0 | 0.0 | 0.00 | 0.00 | 0.00 | ||
| 20260504020732 | 5 | 219 | 0.0 | 0.0 | 0.00 | 0.00 | 0.00 | ||
| 20260504020227 | 6 | 219 | 0.0 | 0.0 | 0.00 | 0.00 | 0.00 | ||
| 20260504015722 | 5 | 219 | 0.0 | 0.0 | 0.00 | 0.00 | 0.00 | ||
| 20260504015217 | 6 | 219 | 0.0 | 0.0 | 0.00 | 0.00 | 0.00 | ||
| 20260504014709 | 6 | 219 | 0.0 | 0.0 | 0.00 | 0.00 | 0.00 | ||
| 20260504014204 | 6 | 219 | 0.0 | 0.0 | 0.00 | 0.00 | 0.00 | ||
| 20260504013659 | 6 | 219 | 0.0 | 0.0 | 0.00 | 0.00 | 0.00 | ||
| 20260504013154 | 6 | 219 | 0.0 | 0.0 | 0.00 | 0.00 | 0.00 | ||
| 20260504012144 | 7 | 219 | 0.0 | 0.0 | 0.00 | 0.00 | 0.00 | ||
| 20260504011131 | 7 | 219 | 0.0 | 0.0 | 0.00 | 0.00 | 0.00 | ||
| 20260504010626 | 8 | 219 | 0.0 | 0.0 | 0.00 | 0.00 | 0.00 | ||
| 20260504010121 | 8 | 219 | 0.0 | 0.0 | 0.00 | 0.00 | 0.00 | ||
| 20260504005616 | 7 | 219 | 0.0 | 0.0 | 0.00 | 0.00 | 0.00 | ||
| 20260504005111 | 8 | 219 | 0.0 | 0.0 | 0.00 | 0.00 | 0.00 | ||
| 20260504004603 | 8 | 219 | 0.0 | 0.0 | 0.00 | 0.00 | 0.00 | ||
| 20260504004058 | 9 | 219 | 0.0 | 0.0 | 0.00 | 0.00 | 0.00 | ||
| 20260504003553 | 9 | 219 | 0.0 | 0.0 | 0.00 | 0.00 | 0.00 | ||
| 20260504003048 | 9 | 219 | 0.0 | 0.0 | 0.00 | 0.00 | 0.00 | ||
| 20260504002543 | 10 | 219 | 0.0 | 0.0 | 0.00 | 0.00 | 0.00 | ||
| 20260504002039 | 10 | 219 | 0.0 | 0.0 | 0.00 | 0.00 | 0.00 | ||
| 20260504001531 | 11 | 219 | 0.0 | 0.0 | 0.00 | 0.00 | 0.00 | ||
| 20260504001026 | 11 | 219 | 0.0 | 0.0 | 0.00 | 0.00 | 0.00 | ||
| 20260504000521 | 11 | 219 | 0.0 | 0.0 | 0.00 | 0.00 | 0.00 | ||
| 20260504000016 | 12 | 219 | 0.0 | 0.0 | 0.00 | 0.00 | 0.00 | ||
| 20260503235512 | 13 | 219 | 0.0 | 0.0 | 0.00 | 0.00 | 0.00 | ||
| 20260503235007 | 13 | 219 | 0.0 | 4.8 | 0.00 | 0.00 | 0.00 | ||
| 20260503233954 | 14 | 266 | 6.4 | 8.0 | 0.00 | 0.00 | 0.00 | ||
| 20260503233449 | 15 | 280 | 3.2 | 11.3 | 0.00 | 0.00 | 0.00 | ||
| 20260503232945 | 15 | 266 | 4.8 | 12.9 | 0.00 | 0.00 | 0.00 | ||
| 20260503232440 | 16 | 263 | 3.2 | 14.5 | 0.00 | 0.00 | 0.00 | ||
| 20260503231935 | 16 | 285 | 6.4 | 16.1 | 0.00 | 0.00 | 0.00 | ||
| 20260503231428 | 16 | 291 | 12.9 | 16.1 | 0.00 | 0.00 | 0.00 | ||
| 20260503230923 | 16 | 269 | 6.4 | 16.1 | 0.00 | 0.00 | 0.00 | ||
| 20260503230418 | 16 | 277 | 12.9 | 24.1 | 0.00 | 0.00 | 0.00 | ||
| 20260503225914 | 16 | 287 | 11.3 | 17.7 | 0.00 | 0.00 | 0.00 | ||
| 20260503225409 | 17 | 259 | 12.9 | 17.7 | 0.00 | 0.00 | 0.00 | ||
| 20260503224903 | 17 | 302 | 9.7 | 19.3 | 0.00 | 0.00 | 0.00 | ||
| 20260503224356 | 18 | 291 | 9.7 | 14.5 | 0.00 | 0.00 | 0.00 | ||
| 20260503223851 | 17 | 266 | 8.0 | 16.1 | 0.00 | 0.00 | 0.00 | ||
| 20260503223346 | 17 | 250 | 8.0 | 20.9 | 0.00 | 0.00 | 0.00 | ||
| 20260503222841 | 17 | 290 | 4.8 | 16.1 | 0.00 | 0.00 | 0.00 | ||
| 20260503222336 | 18 | 253 | 11.3 | 20.9 | 0.00 | 0.00 | 0.00 |